Tracking 19176 objects as of 25-May-2018
HD Live streaming from Space Station
objects crossing your sky now

FENGYUN 1C DEB

Track FENGYUN 1C DEB now!
10-day predictions


NORAD ID: 29876
Int'l Code: 1999-025FW
Perigee: 791.0 km
Apogee: 883.3 km
Inclination: 98.3 °
Period: 101.5 minutes
Semi major axis: 7208 km
RCS: 0.0256 m2 (small)
Launch date: May 10, 1999
Source: People's Republic of China (PRC)
Launch site: Taiyaun Space Center, China (TSC)

Note: This is SATELLITE DEBRIS
aabbcc
Your satellite tracking list
Your tracking list is empty




NASA's NSSDC Master Catalog

Two Line Element Set (TLE):
1 29876U 99025FW  18144.97371545 +.00000031 +00000-0 +33164-4 0  9991
2 29876 098.2887 304.9000 0064003 105.3574 012.7901 14.18624961587899
Source of the keplerian elements: AFSPC